Regional Weather Roundup
Issued by NWS

Home | Current Version | Previous Version | Text Only | Print | Product List | Glossary On
Versions: 1 2 3 4 5 6 7 8 9 10 11 12 13 14 15 16 17 18 19 20 21 22 23 24 25
000
ASUS42 KKEY 112110
RWRKEY

FLORIDA REGIONAL WEATHER ROUNDUP FOR THE FLORIDA KEYS
NATIONAL WEATHER SERVICE KEY WEST FLORIDA
400 PM EST MON DEC 11 2017

...SOUTH FLORIDA AND THE KEYS...

CITY           SKY/WX    TMP DP  RH WIND       PRES   REMARKS
FORT MYERS     SUNNY     66  42  41 NW9       30.17F
SW REGIONAL AP SUNNY     65  41  41 MISG      30.17F
NAPLES         SUNNY     64  44  48 NW9       30.16F
MIAMI          MOSUNNY   68  28  22 NW7       30.15F
WEST KENDALL   SUNNY     65  29  25 NW8       30.15F
HOMESTEAD      SUNNY     66  33  30 NW6       30.14F
MARATHON       SUNNY     66  43  43 N10       30.15F
KEY WEST INTL  SUNNY     66  51  58 N12G21    30.17S

...INTERNATIONAL WEATHER...

CITY           SKY/WX    TMP DP  RH WIND       PRES   REMARKS
NASSAU BAHAMAS PTSUNNY   72  57  60 N7        30.09F
CANCUN MEXICO  PTSUNNY   72  64  78 NW10      30.16S
COZUMEL MEXICO PTSUNNY   75  64  69 N13       30.13F

ADJACENT COASTAL WATERS...

STATION/POSITION TIME  SKY/WX   TEMP    WIND        PRES    WAVE
                                AIR SEA DIR/SP/G            HT/PER
                 (UTC)          (F)     (DEG/KT/KT) (MB)    (FT/S)
PULASKI SHOAL LI 2100            66      20/ 11/ 12 1021.8R
SAND KEY         2050            63                 1021.8F
LONG KEY         NOT AVBL
MOLASSES REEF    2100            65 74  360/ 12/ 14 1020.9F
FOWEY ROCKS      2100            64 77  330/  5/  6 1021.3F
Buoy 42097       2030               77                N/A     3/ 6

$$




USA.gov is the U.S. government's official web portal to all federal, state and local government web resources and services.